Location: Bakov nad Jizerou
(50.4784°N, 14.9394°E)
Time: 17:04:39
(UTC+00:00)

Cosmos 2322 - Pass Details

Date: 30 October 2021
Orbit: 841 x 854 km, 71.0° (Epoch: 04 December)

Event Time Altitude Azimuth Distance (km) Brightness Sun altitude
Exits shadow 02:38:05 43° 144° (SE) 1,184 4.5 -30.4°
Drops below altitude 10° 02:41:45 10° 149° (SSE) 2,463 6.3 -29.9°
Sets 02:44:11 0° 150° (SSE) 3,392 7.0 -29.5°
